This is the latest recevied weather packets stored in our database for station/object AK6MW. If no packets are shown the sender has not sent any weather packets the latest 10 day(s).
| Time | Temp. | Humidity | Pressure | Rain* | Wind** | Luminosity | Snow |
|---|---|---|---|---|---|---|---|
| 1777688345 | 18.89° C | 52% | 1016.2 hPa | - | - | - | - |
| 1777685325 | 20° C | 50% | 1015.8 hPa | - | - | - | - |
| 1777679925 | 22.78° C | 45% | 1015.5 hPa | - | - | - | - |
| 1777679326 | 22.22° C | 44% | 1015.5 hPa | - | - | - | - |
| 1777675125 | 22.22° C | 45% | 1016 hPa | - | - | - | - |
| 1777674525 | 22.22° C | 47% | 1015.9 hPa | - | - | - | - |
| 1777673325 | 22.78° C | 46% | 1016.4 hPa | - | - | - | - |
| 1777672145 | 22.22° C | 45% | 1016.6 hPa | - | - | - | - |
| 1777666126 | 21.67° C | 51% | 1017 hPa | - | - | - | - |
| 1777665524 | 21.11° C | 50% | 1017.1 hPa | - | - | - | - |
| 1777664924 | 21.11° C | 50% | 1017.3 hPa | - | - | - | - |
| 1777662525 | 21.11° C | 51% | 1017.5 hPa | - | - | - | - |
| 1777661924 | 20.56° C | 55% | 1017.5 hPa | - | - | - | - |
| 1777657127 | 20° C | 53% | 1017.7 hPa | - | - | - | - |
| 1777654728 | 21.11° C | 45% | 1017.8 hPa | - | - | - | - |
| 1777652927 | 20° C | 51% | 1018.1 hPa | - | - | - | - |
| 1777652325 | 18.89° C | 50% | 1017.8 hPa | - | - | - | - |
| 1777651125 | 17.22° C | 58% | 1017.8 hPa | - | - | - | - |
| 1777644526 | 5° C | 99% | 1017.6 hPa | - | - | - | - |
| 1777643948 | 4.44° C | 99% | 1017.3 hPa | - | - | - | - |
| 1777639126 | 4.44° C | 99% | 1016.7 hPa | - | - | - | - |
| 1777636746 | 4.44° C | 99% | 1017.2 hPa | - | - | - | - |
| 1777635548 | 5.56° C | 99% | 1016.8 hPa | - | - | - | - |
| 1777630125 | 6.11° C | 98% | 1016.6 hPa | - | - | - | - |
| 1777629525 | 5.56° C | 97% | 1016.8 hPa | - | - | - | - |
* Rain since midnight (hover to see other rain measurements)
** Current wind speed in m/s (hover to see current wind gust speed)